• Join FlightAware (Why Join?)
  • Login
  • US Flag 
09:06AM EST


 

Airport Tracker/Info


-or-


 

Live Flight TrackerFlight Track Log ✈ UAL119 ✈ 19-Apr-2013 ✈ KEWR - EDDF / FRA

Flight Track Log - Related Links

Times and Time Zones

All times are in EDT time to prevent confusion due to time zone crossing. See the UAL119 flight status page for this flight to view local times or setup timezone preferences in your user account.

Time Position Orientation Groundspeed Altitude Reporting Facility
EDT Latitude Longitude Course Direction KTS MPH feet Rate Location/Type
04:59PM 40.6380 -74.1910 195° South 182 209 2,300  Level FlightAware
04:59PM 40.6310 -74.2060 238° Southwest 211 243 2,600 1,560 Climbing FlightAware
04:59PM 40.6357 -74.2348 282° West 249 287 3,200 1,920 Climbing FlightAware ADS-B
05:00PM 40.6455 -74.2482 314° West 269 310 3,600 2,400 Climbing FlightAware ADS-B
05:00PM 40.6803 -74.2570 349° North 269 310 4,800 2,520 Climbing FlightAware ADS-B
05:01PM 40.7217 -74.2003 46° Northeast 303 349 6,600 2,520 Climbing FlightAware ADS-B
05:01PM 40.7251 -74.1895 67° East 321 369 6,900 2,700 Climbing FlightAware ADS-B
05:01PM 40.7340 -74.1608 68° East 323 372 7,600 2,820 Climbing FlightAware ADS-B
05:01PM 40.7363 -74.1543 65° Northeast 324 373 7,800 2,880 Climbing FlightAware ADS-B
05:02PM 40.7495 -74.1140 67° East 326 375 8,800 2,640 Climbing FlightAware ADS-B
05:02PM 40.7593 -74.0856 66° East 329 379 9,500 2,640 Climbing FlightAware ADS-B
05:02PM 40.7650 -74.0695 65° Northeast 333 383 9,900 1,020 Climbing FlightAware ADS-B
05:03PM 40.7857 -74.0111 65° Northeast 374 430 10,200 540 Climbing FlightAware ADS-B
05:03PM 40.7871 -74.0073 64° Northeast 372 428 10,200 120 Level FlightAware ADS-B
05:03PM 40.8120 -73.9360 65° Northeast 398 458 10,300 1,020 Climbing FlightAware
05:04PM 40.8357 -73.8695 65° Northeast 382 440 11,300 1,800 Climbing FlightAware ADS-B
05:04PM 40.8600 -73.8046 64° Northeast 353 406 12,200 600 Climbing FlightAware ADS-B
05:05PM 40.9002 -73.6996 63° Northeast 352 405 12,200 60 Level FlightAware ADS-B
05:06PM 40.9265 -73.6314 63° Northeast 352 405 12,300 540 Climbing FlightAware ADS-B
05:06PM 40.9661 -73.5684 50° Northeast 357 411 12,900 1,080 Climbing FlightAware ADS-B
05:07PM 40.9996 -73.5447 28° Northeast 369 425 13,400 1,080 Climbing FlightAware ADS-B
05:07PM 41.0560 -73.5170 20° North 401 461 14,000 1,260 Climbing FlightAware
05:08PM 41.0866 -73.5025 20° North 392 451 14,500 1,860 Climbing FlightAware ADS-B
05:08PM 41.1370 -73.4780 20° North 422 486 15,400 1,140 Climbing FlightAware
05:09PM 41.1980 -73.4480 20° North 426 490 15,800 2,280 Climbing FlightAware
05:09PM 41.2439 -73.4263 20° North 439 505 17,500 3,240 Climbing FlightAware ADS-B
05:09PM 41.2970 -73.4000 20° North 442 509 18,500 2,220 Climbing FlightAware
05:10PM 41.3117 -73.3930 20° North 445 512 18,800 2,100 Climbing FlightAware ADS-B
05:10PM 41.3760 -73.3610 20° North 451 519 19,900 1,920 Climbing FlightAware
05:10PM 41.3946 -73.3523 19° North 456 525 20,200 1,740 Climbing FlightAware ADS-B
05:11PM 41.4530 -73.3128 27° Northeast 468 539 21,000 1,740 Climbing FlightAware ADS-B
05:12PM 41.5550 -73.2210 34° Northeast 475 547 22,800 1,800 Climbing FlightAware
05:13PM 41.6540 -73.1370 32° Northeast 479 551 24,500 1,800 Climbing FlightAware
05:13PM 41.7420 -73.0590 33° Northeast 481 554 25,800 1,200 Climbing FlightAware
05:14PM 41.8090 -72.9970 35° Northeast 486 559 26,200 300 Climbing FlightAware
05:15PM 41.8730 -72.9400 34° Northeast 486 559 26,200  Level FlightAware
05:15PM 41.9360 -72.8820 34° Northeast 486 559 26,200 1,500 Level FlightAware
05:16PM 42.0690 -72.7590 34° Northeast 534 615 28,500 2,100 Climbing FlightAware
05:17PM 42.1520 -72.6830 34° Northeast 540 621 29,400 1,620 Climbing FlightAware
05:18PM 42.2420 -72.5990 35° Northeast 532 612 30,800 1,680 Climbing FlightAware
05:18PM 42.3230 -72.5240 34° Northeast 529 609 31,800 1,620 Climbing FlightAware
05:19PM 42.4040 -72.4490 34° Northeast 523 602 33,000 1,740 Climbing FlightAware
05:20PM 42.4940 -72.3640 35° Northeast 515 593 34,300 1,380 Climbing FlightAware
05:20PM 42.5710 -72.2920 35° Northeast 515 593 35,000 480 Climbing FlightAware
05:21PM 42.6590 -72.2090 35° Northeast 520 598 35,000  Level FlightAware
05:22PM 42.7370 -72.1350 35° Northeast 521 600 35,000  Level FlightAware
05:22PM 42.8180 -72.0580 35° Northeast 525 604 35,000  Level FlightAware
05:23PM 42.9090 -71.9720 35° Northeast 528 608 35,000  Level FlightAware
05:24PM 42.9900 -71.8950 35° Northeast 527 606 35,000  Level FlightAware
05:25PM 43.0760 -71.8120 35° Northeast 529 609 35,000  Level FlightAware
05:25PM 43.1580 -71.7340 35° Northeast 528 608 35,000  Level FlightAware
05:26PM 43.2370 -71.6570 35° Northeast 527 606 35,000  Level FlightAware
05:27PM 43.3280 -71.5700 35° Northeast 524 603 35,000  Level FlightAware
05:27PM 43.4080 -71.4920 35° Northeast 521 600 35,000  Level FlightAware
05:28PM 43.4940 -71.4080 35° Northeast 517 595 35,000  Level FlightAware
05:29PM 43.5720 -71.3320 35° Northeast 516 594 35,000  Level FlightAware
05:30PM 43.6600 -71.2460 35° Northeast 515 593 35,000  Level FlightAware
05:30PM 43.7380 -71.1690 35° Northeast 513 590 35,000  Level FlightAware
05:31PM 43.8140 -71.0940 35° Northeast 513 590 35,000  Level FlightAware
05:32PM 43.9000 -71.0090 35° Northeast 513 590 35,000  Level FlightAware
05:32PM 43.9770 -70.9330 35° Northeast 515 593 35,000  Level FlightAware
05:33PM 44.0540 -70.8560 36° Northeast 515 593 35,000  Level FlightAware
05:34PM 44.1450 -70.7660 35° Northeast 515 593 35,000  Level FlightAware
05:34PM 44.2200 -70.6900 36° Northeast 516 594 35,000  Level FlightAware
05:35PM 44.2990 -70.6110 36° Northeast 518 596 35,000  Level FlightAware
05:36PM 44.3850 -70.5240 36° Northeast 518 596 35,000  Level FlightAware
05:37PM 44.4720 -70.4360 36° Northeast 521 600 35,000  Level FlightAware
05:37PM 44.5500 -70.3570 36° Northeast 521 600 35,000  Level FlightAware
05:38PM 44.6320 -70.2740 36° Northeast 521 600 35,000  Level FlightAware
05:39PM 44.7170 -70.1870 36° Northeast 523 602 35,000  Level FlightAware
05:39PM 44.7860 -70.1160 36° Northeast 522 601 35,000  Level FlightAware
05:40PM 44.8790 -70.0200 36° Northeast 520 598 35,000  Level FlightAware
05:41PM 44.9620 -69.9350 36° Northeast 522 601 35,000  Level FlightAware
05:41PM 45.0390 -69.8560 36° Northeast 521 600 35,000  Level FlightAware
05:42PM 45.1150 -69.7760 37° Northeast 521 600 35,000  Level FlightAware
05:43PM 45.2500 -69.6500 37° Northeast 530 610 35,000  Level Moncton Center
05:44PM 45.3667 -69.5167 39° Northeast 520 598 35,000  Level Moncton Center
05:45PM 45.4597 -69.4278 34° Northeast 515 593 35,000  Level Boston Center
05:46PM 45.5772 -69.3031 37° Northeast 515 593 35,000  Level Boston Center
05:47PM 45.6925 -69.1808 37° Northeast 515 593 35,000  Level Boston Center
05:48PM 45.8056 -69.0553 38° Northeast 515 593 35,000  Level Boston Center
05:49PM 45.9206 -68.9289 37° Northeast 510 587 35,000  Level Boston Center
05:55PM 46.5960 -68.1850 37° Northeast 512 589 35,000  Level FlightAware
05:56PM 46.6750 -68.0970 37° Northeast 514 592 35,000  Level FlightAware
05:56PM 46.7460 -68.0170 38° Northeast 513 590 35,000  Level FlightAware
05:57PM 46.8210 -67.9340 37° Northeast 514 592 35,000  Level FlightAware
05:58PM 46.9110 -67.8340 37° Northeast 514 592 35,000  Level FlightAware
05:58PM 46.9750 -67.7630 37° Northeast 514 592 35,000  Level FlightAware
05:59PM 47.0400 -67.6910 37° Northeast 514 592 35,000  Level FlightAware
06:00PM 47.1040 -67.6200 37° Northeast 514 592 35,000  Level FlightAware
06:00PM 47.1690 -67.5480 37° Northeast 514 592 35,000  Level FlightAware
06:01PM 47.2330 -67.4770 37° Northeast 514 592 35,000  Level FlightAware
06:02PM 47.3140 -67.3870 37° Northeast 514 592 35,000  Level FlightAware
06:03PM 47.3790 -67.3150 37° Northeast 514 592 35,000  Level FlightAware
06:03PM 47.4430 -67.2430 37° Northeast 514 592 35,000  Level FlightAware
06:04PM 47.5080 -67.1710 37° Northeast 514 592 35,000  Level FlightAware
06:05PM 47.5720 -67.0990 37° Northeast 514 592 35,000  Level FlightAware
06:05PM 47.6530 -67.0090 37° Northeast 514 592 35,000  Level FlightAware
06:06PM 47.7180 -66.9370 37° Northeast 514 592 35,000  Level FlightAware
06:07PM 47.7820 -66.8640 37° Northeast 514 592 35,000  Level FlightAware
06:07PM 47.9167 -66.5000 37° Northeast 520 598 35,000  Level Gander Center
06:08PM 47.9667 -66.4167 48° Northeast 520 598 35,000  Level Gander Center
06:08PM 48.0167 -66.3000 57° Northeast 520 598 35,000  Level Moncton Center
06:09PM 48.1333 -66.1500 41° Northeast 520 598 35,000  Level Moncton Center
06:10PM 48.2167 -66.0000 50° Northeast 520 598 35,000  Level Moncton Center
06:11PM 48.3333 -65.8333 43° Northeast 520 598 35,000  Level Moncton Center
06:12PM 48.4333 -65.6833 45° Northeast 520 598 35,000  Level Moncton Center
06:13PM 48.5333 -65.5167 48° Northeast 520 598 35,000  Level Moncton Center
06:14PM 48.6333 -65.3667 45° Northeast 520 598 35,000  Level Moncton Center
06:15PM 48.7333 -65.2167 45° Northeast 520 598 35,000  Level Moncton Center
06:16PM 48.8333 -65.0333 50° Northeast 520 598 35,000  Level Moncton Center
06:17PM 48.9333 -64.8833 45° Northeast 520 598 35,000  Level Moncton Center
06:18PM 49.0333 -64.7333 44° Northeast 520 598 35,000  Level Moncton Center
06:19PM 49.1333 -64.5500 50° Northeast 520 598 35,000  Level Moncton Center
06:20PM 49.1500 -64.5000 63° Northeast 520 598 35,000  Level Gander Center
06:21PM 49.2667 -64.3500 40° Northeast 520 598 35,000  Level Gander Center
06:21PM 49.3167 -64.2500 52° Northeast 520 598 35,000  Level Moncton Center
06:22PM 49.4167 -64.0667 50° Northeast 520 598 35,000  Level Moncton Center
06:23PM 49.5167 -63.9000 47° Northeast 520 598 35,000  Level Moncton Center
06:24PM 49.6167 -63.7500 44° Northeast 510 587 35,000  Level Moncton Center
06:25PM 49.6667 -63.6833 41° Northeast 510 587 35,000  Level Gander Center
06:25PM 49.7167 -63.6000 47° Northeast 510 587 35,000  Level Moncton Center
06:26PM 49.8167 -63.4167 50° Northeast 520 598 35,000  Level Moncton Center
06:27PM 49.9000 -63.2500 52° Northeast 510 587 35,000  Level Moncton Center
06:28PM 49.9333 -63.2000 44° Northeast 510 587 35,000  Level Gander Center
06:28PM 50.0167 -63.0667 46° Northeast 510 587 35,000  Level Moncton Center
06:29PM 50.1000 -62.9167 49° Northeast 510 587 35,000  Level Moncton Center
06:30PM 50.1333 -62.8667 44° Northeast 510 587 35,000  Level Gander Center
06:31PM 50.2333 -62.7167 44° Northeast 510 587 35,000  Level Gander Center
06:31PM 50.3000 -62.5833 52° Northeast 510 587 35,000  Level Moncton Center
06:32PM 50.3333 -62.5333 44° Northeast 510 587 35,000  Level Gander Center
06:33PM 50.4167 -62.3500 54° Northeast 520 598 35,000  Level Gander Center
06:34PM 50.5167 -62.2000 44° Northeast 510 587 35,000  Level Gander Center
06:35PM 50.6000 -62.0500 49° Northeast 520 598 35,000  Level Gander Center
06:35PM 50.6667 -61.9167 52° Northeast 500 575 35,000  Level Moncton Center
06:36PM 50.7000 -61.8667 44° Northeast 520 598 35,000  Level Gander Center
06:37PM 50.8000 -61.6833 49° Northeast 510 587 35,000  Level Gander Center
06:37PM 50.8667 -61.5667 48° Northeast 520 598 35,000  Level Moncton Center
06:38PM 50.8833 -61.5167 62° Northeast 520 598 35,000  Level Gander Center
06:39PM 50.9833 -61.3333 49° Northeast 520 598 35,000  Level Gander Center
06:40PM 51.0667 -61.1833 48° Northeast 510 587 35,000  Level Gander Center
06:41PM 51.1667 -60.9833 51° Northeast 530 610 35,000  Level Gander Center
06:41PM 51.2333 -60.8667 48° Northeast 520 598 35,000  Level Moncton Center
06:42PM 51.3333 -60.7000 46° Northeast 520 598 35,000  Level Moncton Center
06:43PM 51.4167 -60.5000 56° Northeast 510 587 35,000  Level Moncton Center
06:44PM 51.5167 -60.3333 46° Northeast 520 598 35,000  Level Moncton Center
06:45PM 51.5333 -60.2833 62° Northeast 520 598 35,000  Level Gander Center
06:46PM 51.6333 -60.1000 49° Northeast 520 598 35,000  Level Gander Center
06:47PM 51.7167 -59.9000 56° Northeast 520 598 35,000  Level Gander Center
06:47PM 51.7833 -59.7667 51° Northeast 530 610 35,000  Level Moncton Center
06:48PM 51.8667 -59.5667 56° Northeast 530 610 35,000  Level Moncton Center
06:49PM 51.9000 -59.5167 43° Northeast 530 610 35,000  Level Gander Center
06:50PM 51.9833 -59.3500 51° Northeast 520 598 35,000  Level Gander Center
06:51PM 52.0667 -59.1333 58° Northeast 530 610 35,000  Level Gander Center
06:52PM 52.1500 -58.9667 51° Northeast 520 598 35,000  Level Gander Center
06:53PM 52.2500 -58.7667 51° Northeast 520 598 35,000  Level Gander Center
06:54PM 52.3333 -58.5667 56° Northeast 520 598 35,000  Level Gander Center
06:55PM 52.4167 -58.3833 53° Northeast 520 598 35,000  Level Gander Center
06:56PM 52.5000 -58.2000 53° Northeast 520 598 35,000  Level Gander Center
06:57PM 52.6000 -57.9833 53° Northeast 520 598 35,000  Level Gander Center
06:58PM 52.6833 -57.8000 53° Northeast 520 598 35,000  Level Gander Center
06:59PM 52.7500 -57.6000 61° Northeast 530 610 35,000  Level Gander Center
06:59PM 52.8167 -57.4667 50° Northeast 520 598 35,000  Level Moncton Center
07:00PM 52.9000 -57.2667 55° Northeast 520 598 35,000  Level Moncton Center
07:01PM 52.9833 -57.0833 53° Northeast 530 610 35,000  Level Moncton Center
07:02PM 53.0167 -57.0000 56° Northeast 530 610 35,000  Level Gander Center
07:03PM 53.1000 -56.8333 50° Northeast 520 598 35,000  Level Gander Center
07:03PM 53.1500 -56.6667 63° Northeast 530 610 35,000  Level Moncton Center
07:04PM 53.1833 -56.6167 42° Northeast 530 610 35,000  Level Gander Center
07:04PM 53.2333 -56.4833 58° Northeast 520 598 35,000  Level Moncton Center
07:05PM 53.3167 -56.2667 57° Northeast 530 610 35,000  Level Moncton Center
07:06PM 53.3333 -56.2167 61° Northeast 520 598 35,000  Level Gander Center
07:06PM 53.3833 -56.0667 61° Northeast 530 610 35,000  Level Moncton Center
07:07PM 53.4833 -55.8667 50° Northeast 530 610 35,000  Level Moncton Center
07:08PM 53.5000 -55.8333 50° Northeast 530 610 35,000  Level Gander Center
07:09PM 53.6000 -55.5833 56° Northeast 520 598 35,000  Level Gander Center
07:09PM 53.6500 -55.4500 58° Northeast 530 610 35,000  Level Moncton Center
07:10PM 53.6667 -55.4167 50° Northeast 530 610 35,000  Level Gander Center
07:11PM 53.7667 -55.2000 52° Northeast 520 598 35,000  Level Gander Center
07:12PM 53.8333 -54.9833 62° Northeast 530 610 35,000  Level Gander Center
07:13PM 53.9000 -54.7500 64° Northeast 530 610 35,000  Level Gander Center
07:14PM 53.9500 -54.5167 70° East 540 621 35,000  Level Gander Center
07:15PM 54.0000 -54.3000 68° East 540 621 35,000  Level Gander Center
07:16PM 54.0500 -54.0667 70° East 540 621 35,000  Level Gander Center
07:17PM 54.1000 -53.8333 70° East 540 621 35,000  Level Gander Center
07:18PM 54.1500 -53.6000 70° East 540 621 35,000  Level Gander Center
07:19PM 54.2333 -53.3500 60° Northeast 540 621 35,000  Level Gander Center
07:20PM 54.2833 -53.1167 70° East 540 621 35,000  Level Gander Center
07:21PM 54.3333 -52.8667 71° East 540 621 35,000  Level Gander Center
07:21PM 54.3667 -52.7500 64° Northeast 540 621 35,000  Level Gander Center
07:22PM 54.3833 -52.6333 76° East 540 621 35,000  Level Gander Center
07:22PM 54.4167 -52.5000 67° East 540 621 35,000  Level Gander Center
07:23PM 54.4667 -52.2667 70° East 540 621 35,000  Level Gander Center
07:24PM 54.5167 -52.0167 71° East 540 621 35,000  Level Gander Center
07:25PM 54.5500 -51.9333 55° Northeast 540 621 35,000  Level Gander Center
07:26PM 54.6000 -51.6500 73° East 540 621 35,000  Level Gander Center
07:27PM 54.6667 -51.4333 62° Northeast 540 621 35,000  Level Gander Center
07:28PM 54.7167 -51.1833 71° East 540 621 35,000  Level Gander Center
07:28PM 54.7500 -51.0333 69° East 540 621 35,000  Level Gander Center
07:29PM 54.7833 -50.8000 76° East 540 621 35,000  Level Gander Center
07:30PM 54.8167 -50.7000 60° Northeast 540 621 35,000  Level Gander Center
07:31PM 54.8833 -50.4500 65° Northeast 550 633 35,000  Level Gander Center
07:32PM 54.8833 -50.1833 90° East 550 633 35,000  Level Gander Center
07:33PM 54.9667 -49.9333 60° Northeast 550 633 35,000  Level Gander Center
07:35PM 55.0351 -49.4951 75° East  Level FlightAware Approximate
07:42PM 55.2756 -47.8535 75° East  Level FlightAware Approximate
07:43PM 55.3082 -47.6174 76° East  Level FlightAware Approximate
07:44PM 55.3402 -47.3809 76° East  Level FlightAware Approximate
07:45PM 55.3714 -47.1428 78° East  Level FlightAware Approximate
07:46PM 55.3987 -46.9041 79° East  Level FlightAware Approximate
07:47PM 55.4255 -46.6651 79° East  Level FlightAware Approximate
07:48PM 55.4519 -46.4257 79° East  Level FlightAware Approximate
07:49PM 55.4779 -46.1860 79° East  Level FlightAware Approximate
07:50PM 55.5033 -45.9461 79° East  Level FlightAware Approximate
07:51PM 55.5283 -45.7058 79° East  Level FlightAware Approximate
07:52PM 55.5528 -45.4652 80° East  Level FlightAware Approximate
07:53PM 55.5769 -45.2243 80° East  Level FlightAware Approximate
07:54PM 55.6005 -44.9831 80° East  Level FlightAware Approximate
07:55PM 55.6236 -44.7416 80° East  Level FlightAware Approximate
07:56PM 55.6462 -44.4999 80° East  Level FlightAware Approximate
07:57PM 55.6683 -44.2579 81° East  Level FlightAware Approximate
07:58PM 55.6900 -44.0156 81° East  Level FlightAware Approximate
07:59PM 55.7112 -43.7730 81° East  Level FlightAware Approximate
08:00PM 55.7319 -43.5302 81° East  Level FlightAware Approximate
08:01PM 55.7521 -43.2871 81° East  Level FlightAware Approximate
08:02PM 55.7719 -43.0438 82° East  Level FlightAware Approximate
08:03PM 55.7920 -42.8004 81° East  Level FlightAware Approximate
08:04PM 55.8126 -42.5570 81° East  Level FlightAware Approximate
08:05PM 55.8329 -42.3134 81° East  Level FlightAware Approximate
08:06PM 55.8526 -42.0696 82° East  Level FlightAware Approximate
08:07PM 55.8718 -41.8255 82° East  Level FlightAware Approximate
08:08PM 55.8906 -41.5812 82° East  Level FlightAware Approximate
08:09PM 55.9089 -41.3366 82° East  Level FlightAware Approximate
08:10PM 55.9267 -41.0919 83° East  Level FlightAware Approximate
08:11PM 55.9440 -40.8468 83° East  Level FlightAware Approximate
08:12PM 55.9608 -40.6016 83° East  Level FlightAware Approximate
08:13PM 55.9772 -40.3562 83° East  Level FlightAware Approximate
08:14PM 55.9930 -40.1105 83° East  Level FlightAware Approximate
08:15PM 56.0189 -39.8681 76° East  Level FlightAware Approximate
08:16PM 56.0528 -39.6281 76° East  Level FlightAware Approximate
08:17PM 56.0863 -39.3877 76° East  Level FlightAware Approximate
08:18PM 56.1193 -39.1468 76° East  Level FlightAware Approximate
08:19PM 56.1519 -38.9055 76° East  Level FlightAware Approximate
08:20PM 56.1839 -38.6639 76° East  Level FlightAware Approximate
08:21PM 56.2155 -38.4218 77° East  Level FlightAware Approximate
08:22PM 56.2467 -38.1793 77° East  Level FlightAware Approximate
08:23PM 56.2773 -37.9365 77° East  Level FlightAware Approximate
08:24PM 56.3075 -37.6932 77° East  Level FlightAware Approximate
08:25PM 56.3372 -37.4496 77° East  Level FlightAware Approximate
08:26PM 56.3664 -37.2056 78° East  Level FlightAware Approximate
08:27PM 56.3952 -36.9612 78° East  Level FlightAware Approximate
08:28PM 56.4234 -36.7165 78° East  Level FlightAware Approximate
08:29PM 56.4512 -36.4714 78° East  Level FlightAware Approximate
08:30PM 56.4785 -36.2259 79° East  Level FlightAware Approximate
08:31PM 56.5053 -35.9801 79° East  Level FlightAware Approximate
08:32PM 56.5316 -35.7340 79° East  Level FlightAware Approximate
08:33PM 56.5575 -35.4875 79° East  Level FlightAware Approximate
08:34PM 56.5828 -35.2406 79° East  Level FlightAware Approximate
08:35PM 56.6077 -34.9935 80° East  Level FlightAware Approximate
08:36PM 56.6321 -34.7460 80° East  Level FlightAware Approximate
08:37PM 56.6559 -34.4982 80° East  Level FlightAware Approximate
08:38PM 56.6793 -34.2501 80° East  Level FlightAware Approximate
08:39PM 56.7022 -34.0017 80° East  Level FlightAware Approximate
08:40PM 56.7246 -33.7530 81° East  Level FlightAware Approximate
08:41PM 56.7465 -33.5040 81° East  Level FlightAware Approximate
08:42PM 56.7679 -33.2547 81° East  Level FlightAware Approximate
08:43PM 56.7888 -33.0051 81° East  Level FlightAware Approximate
08:44PM 56.8092 -32.7553 81° East  Level FlightAware Approximate
08:45PM 56.8291 -32.5052 82° East  Level FlightAware Approximate
08:46PM 56.8485 -32.2548 82° East  Level FlightAware Approximate
08:47PM 56.8675 -32.0042 82° East  Level FlightAware Approximate
08:48PM 56.8858 -31.7533 82° East  Level FlightAware Approximate
08:49PM 56.9038 -31.5022 82° East  Level FlightAware Approximate
08:50PM 56.9212 -31.2508 83° East  Level FlightAware Approximate
08:51PM 56.9380 -30.9992 83° East  Level FlightAware Approximate
08:52PM 56.9544 -30.7474 83° East  Level FlightAware Approximate
08:53PM 56.9703 -30.4953 83° East  Level FlightAware Approximate
08:54PM 56.9857 -30.2431 84° East  Level FlightAware Approximate
08:55PM 57.0004 -29.9906 86° East  Level FlightAware Approximate
08:56PM 57.0097 -29.7372 86° East  Level FlightAware Approximate
08:57PM 57.0185 -29.4836 86° East  Level FlightAware Approximate
08:58PM 57.0268 -29.2299 86° East  Level FlightAware Approximate
08:59PM 57.0346 -28.9762 87° East  Level FlightAware Approximate
09:00PM 57.0419 -28.7223 87° East  Level FlightAware Approximate
09:01PM 57.0486 -28.4683 87° East  Level FlightAware Approximate
09:02PM 57.0549 -28.2142 87° East  Level FlightAware Approximate
09:03PM 57.0606 -27.9601 88° East  Level FlightAware Approximate
09:04PM 57.0658 -27.7059 88° East  Level FlightAware Approximate
09:05PM 57.0705 -27.4516 88° East  Level FlightAware Approximate
09:06PM 57.0747 -27.1972 88° East  Level FlightAware Approximate
09:07PM 57.0784 -26.9428 88° East  Level FlightAware Approximate
09:08PM 57.0816 -26.6884 89° East  Level FlightAware Approximate
09:09PM 57.0842 -26.4339 89° East  Level FlightAware Approximate
09:10PM 57.0863 -26.1793 89° East  Level FlightAware Approximate
09:11PM 57.0880 -25.9248 89° East  Level FlightAware Approximate
09:12PM 57.0891 -25.6702 89° East  Level FlightAware Approximate
09:13PM 57.0896 -25.4156 90° East  Level FlightAware Approximate
09:14PM 57.0897 -25.1611 90° East  Level FlightAware Approximate
09:15PM 57.0892 -24.9065 90° East  Level FlightAware Approximate
09:16PM 57.0883 -24.6519 90° East  Level FlightAware Approximate
09:17PM 57.0868 -24.3973 91° East  Level FlightAware Approximate
09:18PM 57.0848 -24.1428 91° East  Level FlightAware Approximate
09:19PM 57.0823 -23.8883 91° East  Level FlightAware Approximate
09:20PM 57.0793 -23.6339 91° East  Level FlightAware Approximate
09:21PM 57.0757 -23.3794 91° East  Level FlightAware Approximate
09:22PM 57.0716 -23.1251 92° East  Level FlightAware Approximate
09:23PM 57.0671 -22.8708 92° East  Level FlightAware Approximate
09:24PM 57.0636 -22.6164 91° East  Level FlightAware Approximate
09:25PM 57.0599 -22.3621 91° East  Level FlightAware Approximate
09:26PM 57.0556 -22.1079 92° East  Level FlightAware Approximate
09:27PM 57.0507 -21.8537 92° East  Level FlightAware Approximate
09:28PM 57.0454 -21.5996 92° East  Level FlightAware Approximate
09:29PM 57.0396 -21.3455 92° East  Level FlightAware Approximate
09:30PM 57.0332 -21.0916 93° East  Level FlightAware Approximate
09:31PM 57.0263 -20.8377 93° East  Level FlightAware Approximate
09:32PM 57.0190 -20.5840 93° East  Level FlightAware Approximate
09:33PM 57.0111 -20.3303 93° East  Level FlightAware Approximate
09:34PM 57.0027 -20.0768 93° East  Level FlightAware Approximate
09:35PM 56.9816 -19.8262 101° East  Level FlightAware Approximate
09:36PM 56.9548 -19.5772 101° East  Level FlightAware Approximate
09:37PM 56.9276 -19.3286 101° East  Level FlightAware Approximate
09:38PM 56.8998 -19.0804 101° East  Level FlightAware Approximate
09:39PM 56.8716 -18.8326 102° East  Level FlightAware Approximate
09:40PM 56.8428 -18.5851 102° East  Level FlightAware Approximate
09:41PM 56.8136 -18.3380 102° East  Level FlightAware Approximate
09:42PM 56.7839 -18.0913 102° East  Level FlightAware Approximate
09:43PM 56.7537 -17.8450 103° East  Level FlightAware Approximate
09:44PM 56.7230 -17.5990 103° East  Level FlightAware Approximate
09:45PM 56.6918 -17.3535 103° East  Level FlightAware Approximate
09:46PM 56.6601 -17.1084 103° East  Level FlightAware Approximate
09:47PM 56.6280 -16.8637 103° East  Level FlightAware Approximate
09:48PM 56.5954 -16.6195 104° East  Level FlightAware Approximate
09:49PM 56.5623 -16.3756 104° East  Level FlightAware Approximate
09:50PM 56.5287 -16.1322 104° East  Level FlightAware Approximate
09:51PM 56.4947 -15.8892 104° East  Level FlightAware Approximate
09:52PM 56.4602 -15.6467 104° East  Level FlightAware Approximate
09:53PM 56.4252 -15.4046 105° East  Level FlightAware Approximate
09:54PM 56.3897 -15.1629 105° East  Level FlightAware Approximate
09:55PM 56.3538 -14.9218 105° East  Level FlightAware Approximate
09:56PM 56.3174 -14.6810 105° East  Level FlightAware Approximate
09:57PM 56.2805 -14.4407 105° East  Level FlightAware Approximate
09:58PM 56.2432 -14.2009 106° East  Level FlightAware Approximate
09:59PM 56.2054 -13.9616 106° East  Level FlightAware Approximate
10:00PM 56.1672 -13.7227 106° East  Level FlightAware Approximate
10:01PM 56.1284 -13.4843 106° East  Level FlightAware Approximate
10:02PM 56.0893 -13.2464 106° East  Level FlightAware Approximate
10:03PM 56.0497 -13.0090 107° East  Level FlightAware Approximate
10:04PM 56.0096 -12.7721 107° East  Level FlightAware Approximate
10:05PM 55.9691 -12.5356 107° East  Level FlightAware Approximate
10:06PM 55.9281 -12.2997 107° East  Level FlightAware Approximate
10:07PM 55.8866 -12.0642 107° East  Level FlightAware Approximate
10:08PM 55.8448 -11.8293 108° East  Level FlightAware Approximate
10:09PM 55.8024 -11.5949 108° East  Level FlightAware Approximate
10:10PM 55.7597 -11.3610 108° East  Level FlightAware Approximate
10:11PM 55.7164 -11.1276 108° East  Level FlightAware Approximate
10:12PM 55.6728 -10.8947 108° East  Level FlightAware Approximate
10:13PM 55.6287 -10.6623 108° East  Level FlightAware Approximate
10:14PM 55.5841 -10.4305 109° East  Level FlightAware Approximate
10:15PM 55.5392 -10.1992 109° East  Level FlightAware Approximate
10:15PM 55.3860 -9.5320 108° East 477 549 37,000  Level FlightAware
10:16PM 55.4940 -9.9683 108° East  Level FlightAware Approximate
10:16PM 55.3540 -9.3570 108° East 476 548 37,000  Level FlightAware
10:16PM 55.3270 -9.2130 108° East 476 548 37,000  Level FlightAware
10:17PM 55.2980 -9.0640 109° East 473 544 37,000 -1,500 Level FlightAware
10:17PM 55.2662 -8.9661 109° East 442 509 35,500 -2,340 Descending FlightAware UK
10:18PM 55.2535 -8.9004 109° East 442 509 35,500 3,720 Level FlightAware UK
10:18PM 55.2680 -8.9060 109° East 473 544 37,000  Climbing FlightAware
10:18PM 55.2364 -8.8131 109° East 440 506 35,500 -2,520 Descending FlightAware UK
10:18PM 55.2234 -8.7476 109° East 438 504 35,500 4,080 Level FlightAware UK
10:18PM 55.2390 -8.7570 109° East 474 545 37,000  Climbing FlightAware
10:19PM 55.2062 -8.6604 109° East 440 506 35,500 -2,400 Descending FlightAware UK
10:19PM 55.1931 -8.5942 109° East 440 506 35,500 3,600 Level FlightAware UK
10:19PM 55.2070 -8.5960 109° East 474 545 37,000  Climbing FlightAware
10:19PM 55.1757 -8.5069 109° East 444 511 35,500 -2,580 Descending FlightAware UK
10:20PM 55.1626 -8.4417 109° East 444 511 35,500 3,900 Level FlightAware UK
10:20PM 55.1780 -8.4480 109° East 473 544 37,000  Climbing FlightAware
10:20PM 55.1450 -8.3549 109° East 442 509 35,500 -2,460 Descending FlightAware UK
10:20PM 55.1319 -8.2899 109° East 444 511 35,500 3,420 Level FlightAware UK
10:21PM 55.1460 -8.2880 109° East 473 544 37,000  Climbing FlightAware
10:21PM 55.1143 -8.2030 109° East 442 509 35,500 -2,700 Descending FlightAware UK
10:21PM 55.1013 -8.1378 109° East 444 511 35,500  Level FlightAware UK
10:21PM 55.0881 -8.0730 110° East 444 511 35,500  Level FlightAware UK
10:22PM 55.0747 -8.0082 110° East 444 511 35,500  Level FlightAware UK
10:22PM 55.0614 -7.9436 110° East 442 509 35,500  Level FlightAware UK
10:22PM 55.0480 -7.8790 110° East 444 511 35,500  Level FlightAware UK
10:23PM 55.0347 -7.8144 110° East 444 511 35,500  Level FlightAware UK
10:23PM 55.0214 -7.7499 110° East 444 511 35,500  Level FlightAware UK
10:23PM 55.0080 -7.6854 110° East 444 511 35,500  Level FlightAware UK
10:24PM 54.9947 -7.6209 110° East 442 509 35,500  Level FlightAware UK
10:24PM 54.9814 -7.5564 110° East 442 509 35,500  Level FlightAware UK
10:24PM 54.9676 -7.4915 110° East 444 511 35,500  Level FlightAware UK
10:24PM 54.9540 -7.4273 110° East 444 511 35,500  Level FlightAware UK
10:25PM 54.9404 -7.3632 110° East 442 509 35,500  Level FlightAware UK
10:25PM 54.9269 -7.2991 110° East 442 509 35,500  Level FlightAware UK
10:25PM 54.9133 -7.2351 110° East 440 506 35,500  Level FlightAware UK
10:26PM 54.8996 -7.1711 110° East 440 506 35,500 2,640 Level FlightAware UK
10:26PM 54.9060 -7.1270 110° East 472 543 37,000  Climbing FlightAware
10:26PM 54.8860 -7.1071 110° East 436 502 35,500 -4,500 Descending FlightAware UK
10:26PM 54.8725 -7.0431 110° East 438 504 35,500  Level FlightAware UK
10:27PM 54.8588 -6.9793 110° East 436 502 35,500 4,500 Level FlightAware UK
10:27PM 54.8760 -6.9850 110° East 471 542 37,000  Climbing FlightAware
10:27PM 54.8450 -6.9157 110° East 436 502 35,500 -2,700 Descending FlightAware UK
10:27PM 54.8312 -6.8520 111° Southeast 438 504 35,500 3,060 Level FlightAware UK
10:27PM 54.8430 -6.8320 111° Southeast 470 541 37,000  Climbing FlightAware
10:28PM 54.8035 -6.7244 111° Southeast 438 504 35,500  Descending FlightAware UK
10:28PM 54.8110 -6.6870 111° Southeast 471 542 37,000  Climbing FlightAware
10:28PM 54.7897 -6.6605 111° Southeast 438 504 35,500 -4,320 Descending FlightAware UK
10:28PM 54.7757 -6.5965 111° Southeast 440 506 35,500  Level FlightAware UK
10:29PM 54.7618 -6.5324 111° Southeast 442 509 35,500 3,720 Level FlightAware UK
10:29PM 54.7770 -6.5290 111° Southeast 473 544 37,000  Climbing FlightAware
10:29PM 54.7425 -6.4471 111° Southeast 442 509 35,500 -2,520 Descending FlightAware UK
10:29PM 54.7283 -6.3828 111° Southeast 442 509 35,500 4,080 Level FlightAware UK
10:29PM 54.7450 -6.3860 111° Southeast 473 544 37,000  Climbing FlightAware
10:30PM 54.7094 -6.2974 111° Southeast 444 511 35,500 -2,400 Descending FlightAware UK
10:30PM 54.6951 -6.2338 111° Southeast 444 511 35,500 4,500 Level FlightAware UK
10:30PM 54.7140 -6.2470 111° Southeast 474 545 37,000  Climbing FlightAware
10:30PM 54.6811 -6.1697 111° Southeast 448 516 35,500 -2,700 Descending FlightAware UK
10:31PM 54.6668 -6.1048 111° Southeast 446 513 35,500 3,060 Level FlightAware UK
10:31PM 54.6780 -6.0860 111° Southeast 475 547 37,000  Climbing FlightAware
10:31PM 54.6429 -5.9982 111° Southeast 446 513 35,500 -2,460 Descending FlightAware UK
10:31PM 54.6285 -5.9344 111° Southeast 446 513 35,500 4,260 Level FlightAware UK
10:31PM 54.6460 -5.9460 111° Southeast 474 545 37,000  Climbing FlightAware
10:32PM 54.6139 -5.8708 111° Southeast 444 511 35,500 -2,760 Descending FlightAware UK
10:32PM 54.5994 -5.8073 111° Southeast 444 511 35,500 3,000 Level FlightAware UK
10:32PM 54.6100 -5.7880 111° Southeast 476 548 37,000  Climbing FlightAware
10:33PM 54.5754 -5.7017 111° Southeast 446 513 35,500 -2,520 Descending FlightAware UK
10:33PM 54.5608 -5.6385 112° Southeast 446 513 35,500 4,080 Level FlightAware UK
10:33PM 54.5780 -5.6490 112° Southeast 474 545 37,000  Climbing FlightAware
10:33PM 54.5416 -5.5542 112° Southeast 446 513 35,500 -2,400 Descending FlightAware UK
10:34PM 54.5271 -5.4913 112° Southeast 444 511 35,500 4,500 Level FlightAware UK
10:34PM 54.5460 -5.5080 112° Southeast 473 544 37,000  Climbing FlightAware
10:34PM 54.5125 -5.4284 112° Southeast 444 511 35,500 -2,700 Descending FlightAware UK
10:34PM 54.4977 -5.3648 112° Southeast 444 511 35,500 3,060 Level FlightAware UK
10:34PM 54.5080 -5.3500 112° Southeast 473 544 37,000  Climbing FlightAware
10:35PM 54.4734 -5.2608 112° Southeast 440 506 35,500 -2,460 Descending FlightAware UK
10:35PM 54.4588 -5.1981 112° Southeast 440 506 35,500 4,260 Level FlightAware UK
10:35PM 54.4760 -5.2110 112° Southeast 473 544 37,000  Climbing FlightAware
10:35PM 54.4441 -5.1355 112° Southeast 442 509 35,500 -2,760 Descending FlightAware UK
10:36PM 54.4293 -5.0729 112° Southeast 444 511 35,500 3,600 Level FlightAware UK
10:36PM 54.4430 -5.0720 112° Southeast 472 543 37,000  Climbing FlightAware
10:36PM 54.4095 -4.9890 112° Southeast 444 511 35,500 -2,580 Descending FlightAware UK
10:36PM 54.3947 -4.9266 112° Southeast 444 511 35,500 3,900 Level FlightAware UK
10:36PM 54.4110 -4.9380 112° Southeast 472 543 37,000  Climbing FlightAware
10:37PM 54.3749 -4.8430 112° Southeast 442 509 35,500 -2,400 Descending FlightAware UK
10:37PM 54.3601 -4.7809 112° Southeast 440 506 35,500 3,600 Level FlightAware UK
10:37PM 54.3730 -4.7790 112° Southeast 472 543 37,000  Climbing FlightAware
10:37PM 54.3402 -4.6981 112° Southeast 442 509 35,500 -2,580 Descending FlightAware UK
10:38PM 54.3253 -4.6361 112° Southeast 442 509 35,500 3,180 Level FlightAware UK
10:38PM 54.3340 -4.6180 112° Southeast 471 542 37,000  Climbing FlightAware
10:38PM 54.3004 -4.5329 112° Southeast 440 506 35,500 -2,400 Descending FlightAware UK
10:38PM 54.2855 -4.4712 112° Southeast 442 509 35,500 4,500 Level FlightAware UK
10:38PM 54.3000 -4.4810 112° Southeast 470 541 37,000  Climbing FlightAware
10:39PM 54.2725 -4.4075 112° Southeast 440 506 35,500 -2,280 Descending FlightAware UK
10:39PM 54.2562 -4.3229 108° East 440 506 35,500 3,060 Level FlightAware UK
10:39PM 54.2690 -4.3260 108° East 470 541 37,000  Climbing FlightAware
10:40PM 54.2400 -4.2376 108° East 442 509 35,500 -2,460 Descending FlightAware UK
10:40PM 54.2275 -4.1736 108° East 442 509 35,500 4,260 Level FlightAware UK
10:40PM 54.2420 -4.1840 108° East 470 541 37,000  Climbing FlightAware
10:40PM 54.2151 -4.1111 108° East 442 509 35,500 -2,760 Descending FlightAware UK
10:40PM 54.2024 -4.0482 109° East 442 509 35,500 3,600 Level FlightAware UK
10:41PM 54.2130 -4.0440 109° East 469 540 37,000  Climbing FlightAware
10:41PM 54.1855 -3.9659 109° East 442 509 35,500 -2,580 Descending FlightAware UK
10:41PM 54.1724 -3.9025 109° East 442 509 35,500 3,180 Level FlightAware UK
10:41PM 54.1800 -3.8850 109° East 468 539 37,000  Climbing FlightAware
10:42PM 54.1509 -3.7981 109° East 440 506 35,500  Descending FlightAware UK
10:42PM 54.1510 -3.7460 109° East 468 539 37,000  Climbing FlightAware
10:42PM 54.1248 -3.6732 109° East 442 509 35,500 -2,700 Descending FlightAware UK
10:43PM 54.1113 -3.6088 110° East 440 506 35,500 3,720 Level FlightAware UK
10:43PM 54.1220 -3.6090 110° East 467 537 37,000  Climbing FlightAware
10:43PM 54.0940 -3.5256 110° East 440 506 35,500 -2,520 Descending FlightAware UK
10:43PM 54.0810 -3.4640 110° East 440 506 35,500 3,300 Level FlightAware UK
10:43PM 54.0900 -3.4590 110° East 468 539 37,000  Climbing FlightAware
10:44PM 54.0636 -3.3802 110° East 440 506 35,500 -2,700 Descending FlightAware UK
10:44PM 54.0506 -3.3165 109° East 440 506 35,500 3,600 Level FlightAware UK
10:44PM 54.0610 -3.3220 109° East 468 539 37,000  Climbing FlightAware
10:44PM 54.0336 -3.2333 109° East 438 504 35,500 -2,580 Descending FlightAware UK
10:45PM 54.0209 -3.1731 110° East 438 504 35,500 3,300 Level FlightAware UK
10:45PM 54.0280 -3.1650 110° East 468 539 37,000  Climbing FlightAware
10:45PM 54.0032 -3.0880 110° East 438 504 35,500 -2,820 Descending FlightAware UK
10:45PM 53.9905 -3.0271 110° East 438 504 35,500 3,600 Level FlightAware UK
10:45PM 54.0000 -3.0320 110° East 469 540 37,000  Climbing FlightAware
10:46PM 53.9728 -2.9436 110° East 438 504 35,500 -2,700 Descending FlightAware UK
10:46PM 53.9598 -2.8821 110° East 440 506 35,500 3,900 Level FlightAware UK
10:46PM 53.9680 -2.8840 110° East 468 539 37,000  Climbing FlightAware
10:46PM 53.9419 -2.7978 110° East 440 506 35,500 -2,460 Descending FlightAware UK
10:47PM 53.9288 -2.7365 110° East 440 506 35,500 3,420 Level FlightAware UK
10:47PM 53.9350 -2.7300 110° East 468 539 37,000  Climbing FlightAware
10:47PM 53.9111 -2.6537 110° East 442 509 35,500 -2,700 Descending FlightAware UK
10:47PM 53.8979 -2.5917 110° East 440 506 35,500 3,720 Level FlightAware UK
10:48PM 53.9050 -2.5930 110° East 467 537 37,000 4,080 Climbing FlightAware
10:48PM 53.8916 -2.5309 110° East 468 539 37,000 -2,520 Level FlightAware ADS-B
10:48PM 53.8669 -2.4473 110° East 442 509 35,500  Descending FlightAware UK
10:48PM 53.8685 -2.4260 110° East 468 539 37,000  Climbing FlightAware ADS-B
10:49PM 53.8445 -2.3445 110° East 442 509 35,500  Descending FlightAware UK
10:49PM 53.8450 -2.3192 110° East 468 539 37,000  Climbing FlightAware ADS-B
10:49PM 53.8221 -2.2418 110° East 442 509 35,500  Descending FlightAware UK
10:49PM 53.8220 -2.2159 110° East 468 539 37,000  Climbing FlightAware ADS-B
10:50PM 53.7997 -2.1400 110° East 442 509 35,500  Descending FlightAware UK
10:50PM 53.7992 -2.1128 110° East 467 537 37,000  Climbing FlightAware ADS-B
10:50PM 53.7769 -2.0355 110° East 442 509 35,500  Descending FlightAware UK
10:50PM 53.7755 -2.0074 110° East 466 536 37,000  Climbing FlightAware ADS-B
10:51PM 53.7538 -1.9314 110° East 442 509 35,500  Descending FlightAware UK
10:51PM 53.7525 -1.9049 110° East 466 536 37,000  Climbing FlightAware ADS-B
10:51PM 53.7316 -1.8317 110° East 442 509 35,500  Descending FlightAware UK
10:51PM 53.7291 -1.8014 110° East 465 535 37,000  Climbing FlightAware ADS-B
10:52PM 53.7088 -1.7295 110° East 442 509 35,500  Descending FlightAware UK
10:52PM 53.7051 -1.6954 110° East 464 534 37,000  Climbing FlightAware ADS-B
10:52PM 53.6814 -1.6073 110° East 444 511 35,500  Descending FlightAware UK
10:52PM 53.6818 -1.5930 110° East 463 533 37,000  Climbing FlightAware ADS-B
10:53PM 53.6586 -1.5065 110° East 442 509 35,500  Descending FlightAware UK
10:53PM 53.6584 -1.4911 110° East 462 532 37,000  Climbing FlightAware ADS-B
10:53PM 53.6360 -1.4067 110° East 444 511 35,500  Descending FlightAware UK
10:53PM 53.6354 -1.3908 110° East 461 531 37,000  Climbing FlightAware ADS-B
10:54PM 53.6132 -1.3066 110° East 442 509 35,500  Descending FlightAware UK
10:54PM 53.6119 -1.2895 110° East 460 529 37,000  Climbing FlightAware ADS-B
10:54PM 53.5902 -1.2062 110° East 442 509 35,500  Descending FlightAware UK
10:54PM 53.5884 -1.1879 110° East 459 528 37,000  Climbing FlightAware ADS-B
10:55PM 53.5625 -1.0862 110° East 440 506 35,500  Descending FlightAware UK
10:55PM 53.5647 -1.0867 110° East 458 527 37,000  Climbing FlightAware ADS-B
10:55PM 53.5396 -0.9872 110° East 442 509 35,500  Descending FlightAware UK
10:55PM 53.5396 -0.9792 110° East 457 526 37,000  Climbing FlightAware ADS-B
10:56PM 53.5217 -0.9095 110° East 442 509 35,500  Descending FlightAware UK
10:56PM 53.5147 -0.8734 110° East 456 525 37,000  Climbing FlightAware ADS-B
10:56PM 53.4893 -0.7712 110° East 442 509 35,500  Descending FlightAware UK
10:57PM 53.4914 -0.7744 110° East 454 522 37,000  Climbing FlightAware ADS-B
10:57PM 53.4707 -0.6921 110° East 442 509 35,500  Descending FlightAware UK
10:57PM 53.4679 -0.6761 110° East 453 521 37,000  Climbing FlightAware ADS-B
10:57PM 53.4477 -0.5944 110° East 442 509 35,500  Descending FlightAware UK
10:58PM 53.4420 -0.5668 110° East 451 519 37,000  Climbing FlightAware ADS-B
10:58PM 53.4244 -0.4967 110° East 442 509 35,500  Descending FlightAware UK
10:58PM 53.4185 -0.4687 110° East 450 518 37,000  Climbing FlightAware ADS-B
10:58PM 53.3969 -0.3806 110° East 444 511 35,500  Descending FlightAware UK
10:59PM 53.3949 -0.3706 110° East 449 517 37,000  Climbing FlightAware ADS-B
10:59PM 53.3781 -0.3017 110° East 442 509 35,500  Descending FlightAware UK
10:59PM 53.3714 -0.2731 110° East 448 516 37,000  Climbing FlightAware ADS-B
10:59PM 53.3556 -0.2073 110° East 442 509 35,500  Descending FlightAware UK
11:00PM 53.3479 -0.1759 110° East 447 514 37,000  Climbing FlightAware ADS-B
11:00PM 53.3277 -0.0919 110° East 440 506 35,500  Descending FlightAware UK
11:00PM 53.3244 -0.0797 110° East 445 512 37,000  Climbing FlightAware ADS-B
11:00PM 53.3045 0.0032 110° East 440 506 35,500  Descending FlightAware UK
11:01PM 53.3009 0.0166 110° East 444 511 37,000  Climbing FlightAware ADS-B
11:01PM 53.2817 0.0975 110° East 440 506 35,500  Descending FlightAware UK
11:01PM 53.2775 0.1120 110° East 442 509 37,000  Climbing FlightAware ADS-B
11:01PM 53.2586 0.1919 110° East 438 504 35,500  Descending FlightAware UK
11:02PM 53.2540 0.2072 110° East 441 507 37,000  Climbing FlightAware ADS-B
11:02PM 53.2355 0.2853 110° East 438 504 35,500  Descending FlightAware UK
11:02PM 53.2305 0.3026 110° East 442 509 37,000  Climbing FlightAware ADS-B
11:02PM 53.2121 0.3799 110° East 440 506 35,500  Descending FlightAware UK
11:03PM 53.2071 0.3965 110° East 440 506 37,000  Climbing FlightAware ADS-B
11:03PM 53.1888 0.4742 110° East 440 506 35,500  Descending FlightAware UK
11:03PM 53.1836 0.4914 110° East 439 505 37,000  Climbing FlightAware ADS-B
11:03PM 53.1654 0.5688 110° East 438 504 35,500  Descending FlightAware UK
11:04PM 53.1601 0.5853 110° East 439 505 37,000  Climbing FlightAware ADS-B
11:04PM 53.1424 0.6614 110° East 436 502 35,500  Descending FlightAware UK
11:04PM 53.1364 0.6803 110° East 438 504 37,000  Climbing FlightAware ADS-B
11:04PM 53.1191 0.7541 110° East 438 504 35,500  Descending FlightAware UK
11:05PM 53.1129 0.7731 110° East 437 503 37,000  Climbing FlightAware ADS-B
11:05PM 53.0957 0.8466 110° East 438 504 35,500  Descending FlightAware UK
11:05PM 53.0894 0.8665 110° East 437 503 37,000  Climbing FlightAware ADS-B
11:05PM 53.0726 0.9378 110° East 438 504 35,500  Descending FlightAware UK
11:06PM 53.0658 0.9595 110° East 436 502 37,000  Climbing FlightAware ADS-B
11:06PM 53.0488 1.0320 110° East 440 506 35,500  Descending FlightAware UK
11:06PM 53.0420 1.0531 110° East 436 502 37,000  Climbing FlightAware ADS-B
11:06PM 53.0254 1.1242 110° East 440 506 35,500  Descending FlightAware UK
11:07PM 53.0181 1.1471 110° East 436 502 37,000  Climbing FlightAware ADS-B
11:07PM 53.0015 1.2156 110° East 440 506 35,500  Descending FlightAware UK
11:07PM 52.9943 1.2402 110° East 435 501 37,000  Climbing FlightAware ADS-B
11:07PM 52.9782 1.3064 110° East 440 506 35,500  Descending FlightAware UK
11:08PM 52.9706 1.3326 110° East 434 499 37,000  Climbing FlightAware ADS-B
11:08PM 52.9546 1.3995 110° East 438 504 35,500  Descending FlightAware UK
11:08PM 52.9469 1.4239 110° East 434 499 37,000  Climbing FlightAware ADS-B
11:08PM 52.9311 1.4905 110° East 436 502 35,500  Descending FlightAware UK
11:09PM 52.9230 1.5164 110° East 434 499 37,000  Climbing FlightAware ADS-B
11:09PM 52.9074 1.5822 110° East 434 499 35,500  Descending FlightAware UK
11:09PM 52.8992 1.6085 110° East 433 498 37,000  Climbing FlightAware ADS-B
11:09PM 52.8835 1.6726 110° East 436 502 35,500  Descending FlightAware UK
11:10PM 52.8753 1.6996 110° East 434 499 37,000  Climbing FlightAware ADS-B
11:10PM 52.8595 1.7637 110° East 432 497 35,500  Descending FlightAware UK
11:10PM 52.8507 1.7937 110° East 435 501 37,000  Climbing FlightAware ADS-B
11:11PM 52.8305 1.8736 110° East 432 497 35,500  Descending FlightAware UK
11:11PM 52.8265 1.8857 110° East 436 502 37,000  Climbing FlightAware ADS-B
11:11PM 52.8066 1.9641 110° East 434 499 35,500  Descending FlightAware UK
11:11PM 52.8022 1.9786 110° East 437 503 37,000  Climbing FlightAware ADS-B
11:11PM 52.7870 2.0384 110° East 442 509 35,500  Descending FlightAware UK
11:12PM 52.7778 2.0709 110° East 439 505 37,000  Climbing FlightAware ADS-B
11:12PM 52.7576 2.1490 110° East 442 509 35,500  Descending FlightAware UK
11:12PM 52.7526 2.1656 110° East 439 505 37,000  Climbing FlightAware ADS-B
11:13PM 52.7332 2.2400 110° East 442 509 35,500  Descending FlightAware UK
11:13PM 52.7279 2.2587 110° East 440 506 37,000  Climbing FlightAware ADS-B
11:13PM 52.7085 2.3316 110° East 446 513 35,500  Descending FlightAware UK
11:13PM 52.7033 2.3505 110° East 441 507 37,000  Climbing FlightAware ADS-B
11:14PM 52.6786 2.4422 110° East 446 513 35,500 -2,100 Descending FlightAware UK
11:14PM 52.6637 2.4972 114° Southeast 448 516 35,500 2,760 Level FlightAware UK
11:14PM 52.6580 2.5210 114° Southeast 440 506 37,000 4,500 Climbing FlightAware
11:14PM 52.6517 2.5428 115° Southeast 441 507 37,000 -3,960 Level FlightAware ADS-B
11:15PM 52.6334 2.6084 115° Southeast 448 516 35,500 -2,580 Descending FlightAware UK
11:15PM 52.6185 2.6633 114° Southeast 448 516 35,500 4,260 Level FlightAware UK
11:15PM 52.6199 2.6602 114° Southeast 441 507 37,000  Climbing FlightAware ADS-B
11:15PM 52.5985 2.7365 114° Southeast 446 513 35,500 -2,340 Descending FlightAware UK
11:16PM 52.5834 2.7913 114° Southeast 444 511 35,500 4,500 Level FlightAware UK
11:16PM 52.5880 2.7780 114° Southeast 441 507 37,000  Climbing FlightAware
11:16PM 52.5634 2.8638 114° Southeast 442 509 35,500 -2,340 Descending FlightAware UK
11:16PM 52.5483 2.9186 114° Southeast 442 509 35,500 4,680 Level FlightAware UK
11:16PM 52.5550 2.8990 114° Southeast 443 510 37,000  Climbing FlightAware
11:17PM 52.5329 2.9741 114° Southeast 444 511 35,500 -2,580 Descending FlightAware UK
11:17PM 52.5179 3.0284 114° Southeast 444 511 35,500 4,080 Level FlightAware UK
11:17PM 52.5210 3.0230 114° Southeast 444 511 37,000  Climbing FlightAware
11:17PM 52.4974 3.1024 114° Southeast 446 513 35,500 -2,100 Descending FlightAware UK
11:18PM 52.4770 3.1759 115° Southeast 446 513 35,500 3,600 Level FlightAware UK
11:18PM 52.4820 3.1640 115° Southeast 445 512 37,000  Climbing FlightAware
11:18PM 52.4616 3.2310 115° Southeast 448 516 35,500 -2,580 Descending FlightAware UK
11:18PM 52.4461 3.2861 115° Southeast 450 518 35,500 3,900 Level FlightAware UK
11:18PM 52.4490 3.2840 115° Southeast 446 513 37,000  Climbing FlightAware
11:19PM 52.4253 3.3595 115° Southeast 452 520 35,500 -2,520 Descending FlightAware UK
11:19PM 52.4101 3.4132 115° Southeast 446 513 35,500 3,420 Level FlightAware UK
11:19PM 52.4100 3.4230 115° Southeast 445 512 37,000  Climbing FlightAware
11:19PM 52.3890 3.4875 115° Southeast 450 518 35,500 -2,700 Descending FlightAware UK
11:20PM 52.3732 3.5429 115° Southeast 454 522 35,500 3,720 Level FlightAware UK
11:20PM 52.3760 3.5440 115° Southeast 444 511 37,000  Climbing FlightAware
11:20PM 52.3524 3.6159 115° Southeast 452 520 35,500  Descending FlightAware UK
11:20PM 52.3420 3.6650 115° Southeast 444 511 37,000  Climbing FlightAware
11:21PM 52.3161 3.7435 115° Southeast 450 518 35,500  Descending FlightAware UK
11:21PM 52.3030 3.8050 115° Southeast 444 511 37,000  Climbing FlightAware
11:21PM 52.2796 3.8707 115° Southeast 452 520 35,500  Descending FlightAware UK
11:22PM 52.2680 3.9270 115° Southeast 444 511 37,000  Climbing FlightAware
11:22PM 52.2429 3.9977 115° Southeast 450 518 35,500  Descending FlightAware UK
11:23PM 52.2340 4.0490 115° Southeast 444 511 37,000  Climbing FlightAware
11:23PM 52.2219 4.0702 115° Southeast 452 520 35,500 -6,000 Descending FlightAware UK
11:23PM 52.2114 4.1064 115° Southeast 452 520 35,500  Level FlightAware UK
11:23PM 52.1957 4.1608 115° Southeast 454 522 35,500 3,000 Level FlightAware UK
11:23PM 52.1960 4.1820 115° Southeast 442 509 37,000  Climbing FlightAware
11:24PM 52.1697 4.2505 115° Southeast 450 518 35,500  Descending FlightAware UK
11:24PM 52.1610 4.3030 116° Southeast 441 507 37,000  Climbing FlightAware
11:24PM 52.1482 4.3229 116° Southeast 454 522 35,500 -3,480 Descending FlightAware UK
11:24PM 52.1269 4.3945 116° Southeast 450 518 35,500 2,340 Level FlightAware UK
11:25PM 52.1260 4.4220 116° Southeast 440 506 37,000  Climbing FlightAware
11:25PM 52.1109 4.4480 116° Southeast 450 518 35,500 -5,640 Descending FlightAware UK
11:25PM 52.1004 4.4838 116° Southeast 450 518 35,500  Level FlightAware UK
11:25PM 52.0845 4.5378 116° Southeast 448 516 35,500 3,060 Level FlightAware UK
11:25PM 52.0860 4.5590 116° Southeast 439 505 37,000  Climbing FlightAware
11:26PM 52.0583 4.6269 116° Southeast 446 513 35,500  Descending FlightAware UK
11:26PM 52.0530 4.6740 116° Southeast 438 504 37,000  Climbing FlightAware
11:26PM 52.0370 4.6976 116° Southeast 448 516 35,500 -6,000 Descending FlightAware UK
11:26PM 52.0263 4.7330 116° Southeast 448 516 35,500  Level FlightAware UK
11:27PM 52.0061 4.8045 115° Southeast 446 513 35,500 3,000 Level FlightAware UK
11:27PM 52.0150 4.8040 115° Southeast 438 504 37,000  Climbing FlightAware
11:27PM 51.9849 4.8750 115° Southeast 446 513 35,500 -2,520 Descending FlightAware UK
11:27PM 51.9698 4.9286 115° Southeast 444 511 35,500 4,080 Level FlightAware UK
11:27PM 51.9780 4.9260 115° Southeast 438 504 37,000 1,800 Climbing FlightAware
11:28PM 51.9380 5.0630 115° Southeast 439 505 37,000  Level FlightAware
11:29PM 51.9050 5.1730 116° Southeast 440 506 37,000  Level FlightAware
11:30PM 51.8690 5.2930 116° Southeast 440 506 37,000  Level FlightAware
11:30PM 51.8290 5.4260 116° Southeast 441 507 37,000  Level FlightAware
11:31PM 51.7920 5.5460 116° Southeast 443 510 37,000 -2,160 Level FlightAware
11:31PM 51.7757 5.5655 116° Southeast 442 509 35,500 -4,500 Descending FlightAware UK
11:31PM 51.7573 5.6170 116° Southeast 446 513 35,500  Level FlightAware UK
11:32PM 51.7368 5.6674 123° Southeast 446 513 35,500 3,600 Level FlightAware UK
11:32PM 51.7520 5.6800 123° Southeast 444 511 37,000  Climbing FlightAware
11:32PM 51.7177 5.7409 123° Southeast 446 513 35,500 -2,580 Descending FlightAware UK
11:32PM 51.7009 5.7933 117° Southeast 444 511 35,500 3,900 Level FlightAware UK
11:32PM 51.7150 5.7980 117° Southeast 445 512 37,000 1,980 Climbing FlightAware
11:33PM 51.6790 5.9150 116° Southeast 446 513 37,000  Level FlightAware
11:34PM 51.6370 6.0490 117° Southeast 446 513 37,000  Level FlightAware
11:34PM 51.6000 6.1710 116° Southeast 447 514 37,000  Level FlightAware
11:35PM 51.5630 6.2860 117° Southeast 447 514 37,000 -360 Level FlightAware
11:36PM 51.5210 6.4230 116° Southeast 444 511 36,500 -1,560 Descending FlightAware
11:37PM 51.4830 6.5410 117° Southeast 449 517 34,800 -2,520 Descending FlightAware
11:37PM 51.4420 6.6710 117° Southeast 451 519 33,000 -2,580 Descending FlightAware
11:38PM 51.4040 6.7870 118° Southeast 452 520 31,200 -2,820 Descending FlightAware
11:39PM 51.3670 6.9040 117° Southeast 448 516 29,300 -2,640 Descending FlightAware
11:39PM 51.3240 7.0360 117° Southeast 433 498 27,500 -2,220 Descending FlightAware
11:40PM 51.2860 7.1350 122° Southeast 413 475 26,200 -1,140 Descending FlightAware
11:41PM 51.2300 7.2090 140° Southeast 399 459 26,000 -180 Descending FlightAware
11:41PM 51.1560 7.2700 153° Southeast 388 447 26,000  Level FlightAware
11:42PM 51.0930 7.3210 153° Southeast 384 442 26,000 -720 Level FlightAware
11:43PM 51.0290 7.3720 153° Southeast 385 443 25,100 -1,560 Descending FlightAware
11:43PM 50.9590 7.4270 154° Southeast 389 448 23,800 -1,320 Descending FlightAware
11:46PM 50.7391 7.6953 142° Southeast  Level Estimated
11:47PM 50.6316 7.8253 142° Southeast  Level Estimated
11:48PM 50.5240 7.9547 143° Southeast  Level Estimated
11:49PM 50.4162 8.0835 143° Southeast  Level Estimated
11:50PM 50.3083 8.2117 143° Southeast  Level Estimated
11:51PM 50.2002 8.3394 143° Southeast  Level Estimated
11:52PM 50.0920 8.4664 143° Southeast  Level Estimated
11:53PM 50.0264 8.5431 143° Southeast  Level Estimated
11:54PM 50.0264 8.5431 73° East  Level Estimated
11:55PM 50.0264 8.5431 73° East  Level Estimated
11:56PM 50.0264 8.5431 73° East  Level Estimated
11:57PM 50.0264 8.5431 73° East  Level Estimated
11:58PM 50.0264 8.5431 73° East  Level Estimated
11:59PM 50.0264 8.5431 73° East  Level Estimated
12:00AM 50.0264 8.5431 73° East  Level Estimated
12:01AM 50.0264 8.5431 73° East  Level Estimated
12:01AM 50.0360 8.4000 73° East 109 125 1,300  Level FlightAware
12:01AM 50.0410 8.4200 69° East 112 129 1,000 -360 Descending FlightAware
12:02AM 50.0450 8.4380 71° East 112 129 1,000  Level FlightAware
12:04AM 50.0264 8.5431 124° Southeast  Level Estimated
12:05AM 50.0264 8.5431 124° Southeast  Level Estimated
12:06AM 50.0264 8.5431 124° Southeast  Level Estimated